Flag for U.S.A. Weather past 2 weeks in Canton, Ohio, U.S.A.

Now
57 °F

Partly sunny.


Feels Like: 56 °F
Forecast: 32 / 61 °F
Wind: 6 mph from East

Location: Akron-Canton Regional Airport


UV Index: 3 (Moderate)

Visibility: 10 mi


Pressure: 30.02 "Hg

Humidity: 20%

Dew point: 16 °F

Location of CantonLocation

Historic Weather in Canton

°F

Canton temperature yesterday

Maximum temperature yesterday: 49 °F (at 5:51 PM)
Minimum temperature yesterday: 38 °F (at 7:51 AM)
Average temperature yesterday: 42 °F

Past Weeks' High & Low Weather Summary

 TemperatureHumidityPressure
High80 °F (Apr 13, 4:51 PM)97% (Apr 22, 7:51 AM)30.50 "Hg (Apr 22, 7:51 AM)
Low21 °F (Apr 16, 5:51 AM)16% (Apr 20, 6:51 PM)29.62 "Hg (Apr 15, 2:51 AM)
Average53 °F53%30.06 "Hg
* Reported Apr 9 4:51 PM — Apr 24 4:51 PM, Canton, Weather by CustomWeather, © 2014

Note: Actual official high and low records may vary slightly from our data, if they occured in-between our weather recording intervals... More about our weather records

Advertising

Historic Weather Conditions — Data for Previous 24 hours

 ConditionsComfort  
Time TempWeatherWind HumidityBarometerVisibility
4:51 PM
Apr 24
58 °FBroken clouds.No wind21%30.03 "Hg10 mi
3:51 PM57 °FBroken clouds.6 mph20%30.05 "Hg10 mi
2:51 PM56 °FBroken clouds.6 mph21%30.08 "Hg10 mi
1:51 PM54 °FBroken clouds.7 mph22%30.11 "Hg10 mi
12:51 PM52 °FPartly sunny.7 mph26%30.14 "Hg10 mi
11:51 AM50 °FPartly sunny.9 mph28%30.18 "Hg10 mi
10:51 AM46 °FOvercast.7 mph35%30.19 "Hg10 mi
9:51 AM42 °FPartly sunny.5 mph49%30.20 "Hg10 mi
8:51 AM42 °FPartly sunny.No wind49%30.20 "Hg10 mi
7:51 AM38 °FOvercast.3 mph58%30.19 "Hg10 mi
6:51 AM37 °FOvercast.No wind57%30.16 "Hg10 mi
5:51 AM34 °FPassing clouds.No wind64%30.15 "Hg10 mi
4:51 AM33 °FPassing clouds.No wind64%30.15 "Hg10 mi
3:51 AM34 °FClear.No wind70%30.11 "Hg10 mi
2:51 AM35 °FClear.No wind67%30.12 "Hg10 mi
1:51 AM36 °FClear.No wind64%30.13 "Hg10 mi
12:51 AM38 °FClear.5 mph58%30.14 "Hg10 mi
11:51 PM
Apr 23
38 °FClear.5 mph55%30.14 "Hg10 mi
10:51 PM39 °FClear.6 mph49%30.14 "Hg10 mi
9:51 PM41 °FPassing clouds.8 mph51%30.13 "Hg10 mi
8:51 PM43 °FPassing clouds.8 mph46%30.11 "Hg10 mi
7:51 PM46 °FPassing clouds.9 mph43%30.10 "Hg10 mi
6:51 PM48 °FScattered clouds.9 mph43%30.08 "Hg10 mi
Weather by CustomWeather, © 2014

See weather overview